| time (UTC) | temp F | wind direction | speed knots | gust knots | rain 1hr in | rain 24hr in | rain mn in | humidity % | barometer mb |
| 20260506011226 | 72 | 21 | 2.6 | 7.8 | 0.29 | 0.29 | 0.29 | 94 | 1013.7 |
| 20260506004226 | 73 | 352 | 6.1 | 12.2 | 0.19 | 0.19 | 0.19 | 92 | 1013.9 |
| 20260506001226 | 74 | 138 | 0.9 | 3.5 | 0.00 | 0.00 | 0.00 | 94 | 1014.0 |
| 20260505234226 | 73 | 136 | 1.7 | 5.2 | 0.00 | 0.00 | 0.00 | 95 | 1013.8 |
| 20260505231226 | 72 | 138 | 0.9 | 3.5 | 0.00 | 0.00 | 0.00 | 96 | 1013.8 |
| 20260505224226 | 70 | 123 | 0.9 | 2.6 | 0.00 | 0.00 | 0.00 | 97 | 1013.7 |
| 20260505221226 | 70 | 154 | 2.6 | 5.2 | 0.00 | 0.00 | 0.00 | 96 | 1013.5 |
| 20260505214226 | 68 | 152 | 1.7 | 5.2 | 0.00 | 0.00 | 0.00 | 98 | 1013.4 |
| 20260505211226 | 67 | 150 | 1.7 | 3.5 | 0.00 | 0.00 | 0.00 | 97 | 1013.1 |
| 20260505204226 | 67 | 166 | 2.6 | 5.2 | 0.00 | 0.00 | 0.00 | 97 | 1012.9 |
| 20260505201226 | 67 | 166 | 2.6 | 5.2 | 0.00 | 0.00 | 0.00 | 97 | 1012.5 |
| 20260505194226 | 67 | 150 | 2.6 | 4.3 | 0.00 | 0.00 | 0.00 | 97 | 1012.2 |
| 20260505191226 | 67 | 153 | 2.6 | 4.3 | 0.00 | 0.00 | 0.00 | 96 | 1012.2 |
| 20260505184226 | 67 | 160 | 2.6 | 4.3 | 0.00 | 0.00 | 0.00 | 96 | 1011.8 |
| 20260505181226 | 67 | 158 | 1.7 | 2.6 | 0.00 | 0.00 | 0.00 | 96 | 1012.2 |
| 20260505174226 | 68 | 171 | 0.9 | 3.5 | 0.00 | 0.00 | 0.00 | 96 | 1012.4 |
| 20260505171226 | 68 | 140 | 0.9 | 2.6 | 0.00 | 0.00 | 0.00 | 96 | 1012.3 |
| 20260505164226 | 68 | 193 | 0.9 | 3.5 | 0.00 | 0.00 | 0.00 | 95 | 1012.7 |
| 20260505161226 | 68 | 160 | 0.9 | 2.6 | 0.00 | 0.00 | 0.00 | 95 | 1012.7 |
| 20260505151226 | 68 | 163 | 0.9 | 2.6 | 0.00 | 0.00 | 0.00 | 95 | 1013.2 |
| 20260505124226 | 70 | 184 | 0.9 | 2.6 | 0.00 | 0.00 | 0.00 | 92 | 1014.1 |
| 20260505121226 | 71 | 141 | 0.9 | 2.6 | 0.00 | 0.00 | 0.00 | 93 | 1013.8 |
| 20260505114226 | 71 | 110 | 0.9 | 0.9 | 0.00 | 0.00 | 0.00 | 92 | 1013.8 |
| 20260505111226 | 71 | 109 | 0.9 | 1.7 | 0.00 | 0.00 | 0.00 | 91 | 1013.8 |
| 20260505101226 | 71 | 122 | 0.9 | 1.7 | 0.00 | 0.00 | 0.00 | 90 | 1013.7 |
| 20260505094226 | 72 | 124 | 0.9 | 2.6 | 0.00 | 0.00 | 0.00 | 89 | 1013.6 |
| 20260505091226 | 72 | 135 | 0.9 | 3.5 | 0.00 | 0.00 | 0.00 | 89 | 1013.2 |
| 20260505084226 | 72 | 127 | 0.9 | 2.6 | 0.00 | 0.00 | 0.00 | 88 | 1013.2 |
| 20260505081226 | 73 | 135 | 1.7 | 4.3 | 0.00 | 0.00 | 0.00 | 87 | 1012.7 |
| 20260505074226 | 73 | 133 | 1.7 | 3.5 | 0.00 | 0.00 | 0.00 | 86 | 1012.5 |
| 20260505071226 | 74 | 122 | 0.9 | 2.6 | 0.00 | 0.00 | 0.00 | 85 | 1012.5 |
| 20260505064226 | 75 | 124 | 0.9 | 3.5 | 0.00 | 0.00 | 0.00 | 84 | 1012.0 |
| 20260505061226 | 75 | 139 | 0.9 | 3.5 | 0.00 | 0.00 | 0.00 | 84 | 1012.0 |
| 20260505054226 | 76 | 120 | 1.7 | 5.2 | 0.00 | 0.00 | 0.00 | 82 | 1011.7 |
| 20260505051226 | 77 | 112 | 2.6 | 5.2 | 0.00 | 0.00 | 0.00 | 80 | 1011.7 |
| 20260505041226 | 78 | 127 | 1.7 | 5.2 | 0.00 | 0.00 | 0.00 | 78 | 1011.6 |
| 20260505034226 | 78 | 133 | 1.7 | 4.3 | 0.00 | 0.00 | 0.00 | 78 | 1011.8 |
| 20260505031226 | 79 | 118 | 2.6 | 7.0 | 0.00 | 0.00 | 0.00 | 76 | 1011.9 |
| 20260505024226 | 79 | 120 | 2.6 | 6.1 | 0.00 | 0.00 | 0.00 | 77 | 1012.0 |
| 20260505021226 | 79 | 112 | 2.6 | 6.1 | 0.00 | 0.00 | 0.00 | 76 | 1012.3 |
| 20260505014226 | 79 | 115 | 1.7 | 6.1 | 0.00 | 0.00 | 0.00 | 78 | 1012.5 |